Location: Colonie
(42.7179°N, 73.8335°W)
Time: 05:13:59
(UTC+00:00)

CZ-2C R/B - Pass Details

Date: 29 October 2020
Orbit: 703 x 909 km, 98.1° (Epoch: 29 November)

Event Time Altitude Azimuth Distance (km) Brightness Sun altitude
Rises 22:38:11 0° 136° (SE) 3,521 6.1 -9.2°
Reaches altitude 10° 22:40:52 10° 126° (SE) 2,573 5.3 -9.7°
Maximum altitude 22:45:50 31° 67° (ENE) 1,513 4.0 -10.6°
Drops below altitude 10° 22:50:39 10° 7° (N) 2,509 5.5 -11.5°
Sets 22:53:14 0° 357° (N) 3,420 6.3 -11.9°
